KF7FMI-13 Weather Reports


time (UTC)temp
C
wind
direction
speed
KPH
gust
KPH
rain 1hr
cm
rain 24hr
cm
rain mn
cm
humidity
%
barometer
mb
20240222112032 1 157 0.0 1.6 0.00 0.00 0.00 99 1025.0
20240222111037 1 0.0 0.0 0.00 0.00 0.00 99 1024.9
20240222110020 1 0.0 0.0 0.00 0.00 0.00 99 1024.9
20240222105025 1 180 3.2 9.7 0.00 0.00 0.00 99 1025.0
20240222104027 1 165 9.7 9.7 0.00 0.00 0.00 99 1024.8
20240222103030 2 158 4.8 9.7 0.00 0.00 0.00 99 1024.8
20240222102015 2 163 8.0 9.7 0.00 0.00 0.00 99 1024.8
20240222101018 2 148 8.0 11.3 0.00 0.00 0.00 99 1024.7
20240222100022 2 177 11.3 12.9 0.00 0.00 0.00 99 1024.6
20240222095025 2 177 9.7 11.3 0.00 0.00 0.00 99 1024.6
20240222094028 2 180 1.6 8.0 0.00 0.00 0.00 99 1024.6
20240222093051 2 0.0 0.0 0.00 0.00 0.00 99 1024.6
20240222092017 2 0.0 0.0 0.00 0.00 0.00 99 1024.4
20240222091019 2 0.0 0.0 0.00 0.00 0.00 99 1024.4
20240222090022 2 0.0 0.0 0.00 0.00 0.00 99 1024.4
20240222085026 2 0.0 0.0 0.00 0.00 0.00 99 1024.4
20240222084023 2 0.0 0.0 0.00 0.00 0.00 99 1024.3
20240222083020 2 0.0 0.0 0.00 0.00 0.00 99 1024.1
20240222082017 2 180 0.0 8.0 0.00 0.00 0.00 99 1024.1
20240222081020 2 187 8.0 8.0 0.00 0.00 0.00 99 1024.1
20240222080023 2 199 8.0 9.7 0.00 0.00 0.00 99 1024.0
20240222075026 2 187 6.4 9.7 0.00 0.00 0.00 99 1023.9
20240222074029 2 180 3.2 8.0 0.00 0.00 0.00 99 1023.9
20240222073032 2 0.0 1.6 0.00 0.00 0.00 99 1023.6
20240222072017 2 164 3.2 9.7 0.00 0.00 0.00 99 1023.6
20240222071021 2 0.0 1.6 0.00 0.00 0.00 99 1023.6
20240222070024 2 0.0 0.0 0.00 0.00 0.00 99 1023.5
20240222065026 2 0.0 0.0 0.00 0.00 0.00 99 1023.5
20240222064050 2 0.0 1.6 0.00 0.00 0.00 99 1023.3
20240222063033 2 0.0 0.0 0.00 0.00 0.00 99 1023.2
20240222062018 3 0.0 0.0 0.00 0.00 0.00 99 1023.0
20240222061021 3 193 3.2 9.7 0.00 0.00 0.00 99 1022.9
20240222060024 3 192 8.0 12.9 0.00 0.00 0.00 99 1022.8
20240222055043 3 168 14.5 16.1 0.00 0.00 0.00 99 1022.7
20240222054025 3 171 14.5 16.1 0.00 0.00 0.00 99 1022.6
20240222053048 3 137 14.5 17.7 0.00 0.00 0.00 99 1022.5
20240222052025 3 163 16.1 17.7 0.00 0.00 0.00 99 1022.3
20240222051016 3 154 14.5 17.7 0.00 0.00 0.00 99 1022.3
20240222050019 3 154 12.9 14.5 0.00 0.00 0.00 99 1022.2
20240222045017 3 170 11.3 12.9 0.00 0.00 0.00 99 1022.0
20240222044025 4 177 12.9 14.5 0.00 0.00 0.00 99 1021.8
20240222043029 3 177 12.9 14.5 0.00 0.00 0.00 99 1021.6
20240222042052 4 180 12.9 14.5 0.00 0.00 0.00 99 1021.5
20240222041017 3 169 12.9 14.5 0.00 0.00 0.00 99 1021.5
20240222040020 3 177 11.3 12.9 0.00 0.00 0.00 99 1021.4
20240222035023 3 143 3.2 11.3 0.00 0.00 0.00 99 1021.3
20240222034028 3 0.0 0.0 0.00 0.00 0.00 99 1021.3
20240222033029 3 151 3.2 11.3 0.00 0.00 0.00 99 1021.3
20240222032033 3 0.0 0.0 0.00 0.00 0.00 99 1021.1
20240222031018 3 157 0.0 8.0 0.00 0.00 0.00 99 1021.0
20240222030021 3 0.0 0.0 0.00 0.00 0.00 99 1020.9
20240222025024 4 0.0 0.0 0.00 0.00 0.00 99 1020.8
20240222024113 4 0.0 0.0 0.00 0.00 0.00 99 1020.6
20240222023031 4 0.0 0.0 0.00 0.00 0.00 99 1020.5
20240222022016 4 0.0 8.0 0.00 0.00 0.00 99 1020.3
20240222021019 5 171 12.9 12.9 0.00 0.00 0.00 99 1020.2
20240222020022 5 174 12.9 14.5 0.00 0.00 0.00 99 1020.2
20240222015045 5 180 12.9 14.5 0.00 0.00 0.00 99 1019.9
20240222014022 5 182 14.5 14.5 0.00 0.00 0.00 99 1019.7
20240222013020 5 180 8.0 14.5 0.00 0.00 0.00 99 1019.7
20240222012017 5 184 12.9 12.9 0.00 0.00 0.00 99 1019.7
20240222011020 5 183 12.9 14.5 0.00 0.00 0.00 99 1019.6
20240222010023 6 189 12.9 14.5 0.00 0.00 0.00 99 1019.5
20240222005026 6 195 3.2 12.9 0.00 0.00 0.00 99 1019.4
20240222004029 6 179 14.5 16.1 0.00 0.00 0.00 99 1019.2
20240222003033 7 188 16.1 19.3 0.00 0.00 0.00 99 1019.2
20240222002018 6 177 16.1 19.3 0.00 0.00 0.00 99 1019.1
20240222001021 6 168 16.1 17.7 0.00 0.00 0.00 99 1019.0
20240222000029 6 191 17.7 17.7 0.00 0.00 0.00 99 1018.9
20240221235027 6 189 16.1 17.7 0.00 0.00 0.00 99 1018.9
20240221234030 6 222 12.9 14.5 0.00 0.00 0.00 99 1018.8
20240221233015 7 219 11.3 12.9 0.00 0.00 0.00 99 1018.6
20240221232019 7 216 12.9 14.5 0.00 0.00 0.00 99 1018.5
20240221231022 7 210 14.5 16.1 0.00 0.00 0.00 99 1018.5
20240221230025 7 219 14.5 17.7 0.00 0.00 0.00 99 1018.5
20240221225028 7 219 12.9 16.1 0.00 0.00 0.00 99 1018.4
20240221224031 8 241 14.5 17.7 0.00 0.00 0.00 99 1018.3
20240221223016 7 212 6.4 12.9 0.00 0.00 0.00 99 1018.4
20240221222020 7 0.0 0.0 0.00 0.00 0.00 99 1018.4
20240221221022 7 0.0 0.0 0.00 0.00 0.00 99 1018.4
20240221220020 6 0.0 0.0 0.00 0.00 0.00 99 1018.4
20240221215017 6 0.0 0.0 0.00 0.00 0.00 99 1018.3
20240221214026 6 158 6.4 12.9 0.00 0.00 0.00 99 1018.2
20240221213029 6 0.0 0.0 0.00 0.00 0.00 99 1018.4
20240221212033 5 0.0 0.0 0.00 0.00 0.00 99 1018.3
20240221211018 5 0.0 0.0 0.00 0.00 0.00 99 1018.2
20240221210041 5 0.0 0.0 0.00 0.00 0.00 99 1018.1
20240221205023 5 0.0 0.0 0.00 0.00 0.00 99 1017.9
20240221204047 5 0.0 0.0 0.00 0.00 0.00 99 1017.9
20240221203029 5 0.0 0.0 0.00 0.00 0.00 99 1017.8
20240221202032 5 0.0 0.0 0.00 0.00 0.00 99 1017.9
20240221201018 5 0.0 0.0 0.00 0.00 0.00 99 1017.8
20240221200041 5 0.0 0.0 0.00 0.00 0.00 99 1017.8
20240221195023 5 0.0 0.0 0.00 0.00 0.00 99 1017.8
20240221194027 5 0.0 0.0 0.00 0.00 0.00 99 1017.7
20240221193111 5 0.0 0.0 0.00 0.00 0.00 99 1017.7
20240221192015 4 0.0 0.0 0.00 0.00 0.00 99 1017.7
20240221191018 5 0.0 0.0 0.00 0.00 0.00 99 1017.5
20240221190021 5 0.0 0.0 0.00 0.00 0.00 99 1017.4
20240221185025 4 0.0 0.0 0.00 0.00 0.00 99 1017.3
20240221184022 4 0.0 0.0 0.00 0.00 0.00 99 1017.3
20240221183019 4 0.0 0.0 0.00 0.00 0.00 99 1017.3
20240221182016 4 0.0 0.0 0.00 0.00 0.00 99 1017.1
20240221181019 4 0.0 0.0 0.00 0.00 0.00 99 1017.0
20240221180022 4 0.0 0.0 0.00 0.00 0.00 99 1016.9
20240221175025 3 0.0 0.0 0.00 0.00 0.00 99 1016.8
20240221174049 4 0.0 0.0 0.00 0.00 0.00 99 1016.7
20240221173053 4 0.0 0.0 0.00 0.00 0.00 99 1016.6
20240221172017 4 0.0 0.0 0.00 0.00 0.00 99 1016.5
20240221171020 3 0.0 0.0 0.00 0.00 0.00 99 1016.4
20240221170023 3 0.0 0.0 0.00 0.00 0.00 99 1016.3
20240221165026 4 0.0 0.0 0.00 0.00 0.00 99 1016.1
20240221164030 3 0.0 0.0 0.00 0.00 0.00 99 1016.1
20240221163033 3 0.0 0.0 0.00 0.00 0.00 99 1015.9
20240221162018 3 0.0 0.0 0.00 0.00 0.00 99 1015.7
20240221161021 3 0.0 0.0 0.00 0.00 0.00 99 1015.7
20240221160044 3 0.0 0.0 0.00 0.00 0.00 99 1015.7
20240221155027 3 0.0 0.0 0.00 0.00 0.00 99 1015.5
20240221154030 3 0.0 0.0 0.00 0.00 0.00 99 1015.6
20240221153035 3 0.0 0.0 0.00 0.00 0.00 99 1015.4
20240221152019 3 0.0 0.0 0.00 0.00 0.00 99 1015.4
20240221151042 3 0.0 0.0 0.00 0.00 0.00 99 1015.3
20240221150019 2 0.0 0.0 0.00 0.00 0.00 99 1015.2
20240221145015 2 0.0 0.0 0.00 0.00 0.00 99 1015.0
20240221144031 2 0.0 0.0 0.00 0.00 0.00 99 1015.0
20240221143016 2 0.0 0.0 0.00 0.00 0.00 99 1015.0
20240221142019 2 0.0 0.0 0.00 0.00 0.00 99 1015.0
20240221141023 2 0.0 0.0 0.00 0.00 0.00 99 1015.0
20240221140025 2 0.0 0.0 0.00 0.03 0.00 99 1015.0
20240221135029 2 0.0 0.0 0.00 0.03 0.00 99 1014.9
20240221134031 2 0.0 0.0 0.00 0.03 0.00 99 1014.9
20240221133017 2 0.0 0.0 0.00 0.03 0.00 99 1014.9
20240221132020 2 0.0 0.0 0.00 0.03 0.00 99 1014.9
20240221131023 2 0.0 0.0 0.00 0.03 0.00 99 1014.4
20240221130026 2 64 8.0 12.9 0.00 0.03 0.00 99 1014.2
20240221125029 2 0.0 3.2 0.00 0.03 0.00 99 1014.5
20240221124032 2 0.0 0.0 0.00 0.03 0.00 99 1014.3
20240221123017 2 36 11.3 12.9 0.00 0.03 0.00 99 1014.5
20240221122041 2 0.0 0.0 0.00 0.03 0.00 99 1014.5
20240221121024 2 0.0 0.0 0.00 0.03 0.00 99 1014.5
20240221120027 2 0.0 0.0 0.00 0.03 0.00 99 1014.5
20240221115024 2 0.0 0.0 0.00 0.03 0.00 99 1014.5
20240221114015 2 0.0 0.0 0.00 0.03 0.00 99 1014.5
20240221113019 2 0.0 0.0 0.00 0.03 0.00 99 1014.5